OPS 4682 DEB, 18268

Orbit data source: Space-Track

OPS 4682 DEB, 18268 is space debris in LEO originally from a launch on Sat, 03 Apr 1965 UTC launched from the Air Force Western Test Range (AFWTR). Debris objects in space refer to the collection of defunct objects orbiting the Earth. Examples of debris include non-operational satellites, rocket bodies, and fragments generated from explosions, collisions, or faulty payload assembly.

Loading next visibility...
Identifier
18268, 1965-027X
Orbit
LEO
Country
Flag of USUS
Related business
Manufacturer
Unknown
Mission
Spacecraft
Bus & Motor
Unknown
Mass
Unknown
Launch date (UTC)
1965-04-03 (61 years ago)
Launch vehicle
Unknown
Launch site
Air Force Western Test Range (AFWTR)
Object type
Payload
Rocket body
Debris
Shape & HBR
Unknown shape, 0.1 m
Radar Cross Section
Small (<0.1 m²)

Expand to show TLE details & history
Last TLE update: 3 days ago

TLE from 3 days ago
0 OPS 4682 DEB
1 18268U 65027X   25291.89636585 -.00000712  00000-0 -24719-2 0  9991
2 18268  90.2449 359.3817 0029757 340.1551  19.8410 12.97526462630646
Epoch: 2025-10-18T21:30Z
TLE epoch observation values (Epoch: 2025-10-18T21:30:46.009Z)
Latitude
-0.00001°
Longitude
9.06919°
Altitude
1,253.265 km
Speed
7.239 km/s
True Right ascension
23h 57m 31s
True Declination
0° 00' 00"
Sunlit
Object was in full shadow at epoch
Visualization orbit readout
Latitude
Unknown
Longitude
Unknown
Altitude
Unknown
Speed
Unknown
Apparent Right ascension
Unknown
Apparent Declination
Unknown
Sunlit
N/A
Visualization observer readout
Local Sidereal Time
02:48:54
Azimuth
Unknown
Elevation
Unknown
Doppler factor
Unknown
Orbital elements
Apogee altitude
1,291.679 km
Perigee altitude
1,246.169 km
Semi-major axis
7,647.061 km
Eccentricity
0.00298
Inclination
90.2449°
RAAN
359.3817°
Arg. of periapsis
340.1551°
True anomaly
19.95714°
Mean anomaly
19.841°
Eccentric anomaly
19.89903°
Mean motion
3.24565 °/min
Orbital period
110.92 mins
BSTAR
-0.0024719
Loading maneuver chart data...
Computing Atmospheric mass density...
Loading historical data...
Loading historical data...
Loading historical data...
Loading historical data...
Loading historical data...
Loading historical data...
Loading historical data...

Documentation

Showing up to 5 results
|